Regional Weather Roundup
Issued by NWS

Home | Current Version | Previous Version | Graphics & Text | Print | Product List | Glossary On
Versions: 1 2 3 4 5 6 7 8 9 10 11 12 13 14 15 16 17 18 19 20 21 22 23 24 25 26 27 28 29 30 31 32 33 34 35 36 37 38 39 40 41 42 43 44 45 46 47 48 49 50
000
ASUS43 KBIS 260410
RWRND
NORTH DAKOTA REGIONAL WEATHER ROUNDUP
NATIONAL WEATHER SERVICE EASTERN NORTH DAKOTA/GRAND FORKS ND
1000 PM CST SUN FEB 25 2018

  NOTE: "FAIR" INDICATES FEW OR NO CLOUDS BELOW 12,000 FEET WITH NO
  SIGNIFICANT WEATHER AND/OR OBSTRUCTIONS TO VISIBILITY.

NDZ001>003-009>011-017-260500-
...NORTHWEST NORTH DAKOTA...

CITY           SKY/WX    TMP DP  RH WIND       PRES   REMARKS
WILLISTON      FAIR      17  12  80 SW7       29.60F WCI   8
MINOT          FAIR      26  14  60 SW14      29.60F WCI  14
MINOT AFB      FAIR      23  13  67 SW15        N/A  WCI  10
$$

NDZ018>021-031>035-040>046-260500-
...SOUTHWEST NORTH DAKOTA...

CITY           SKY/WX    TMP DP  RH WIND       PRES   REMARKS
BISMARCK       FAIR      22  15  75 W8        29.73R WCI  12
DICKINSON      FAIR      21  12  68 SW18      29.64S WCI   6
GARRISON         N/A     15  10  80 SW9       29.65S WCI   3
HETTINGER      FAIR      21   9  59 SW17      29.72S WCI   7
$$

NDZ004>008-012>016-024-026-027-054-260500-
...NORTHEAST NORTH DAKOTA...

CITY           SKY/WX    TMP DP  RH WIND       PRES   REMARKS
GRAND FORKS    FAIR      14  11  87 S10       29.75S WCI   1
GRAND FORKS AF FAIR      15  11  82 S10       29.74R WCI   2
DEVILS LAKE    FAIR      17  12  80 SW13      29.68  WCI   4
$$

NDZ022-023-025-028>030-036>039-047>053-260500-
...SOUTHEAST NORTH DAKOTA...

CITY           SKY/WX    TMP DP  RH WIND       PRES   REMARKS
JAMESTOWN      FAIR      22  15  75 SW14      29.73S WCI   9
FARGO          FAIR      18  13  80 S10       29.80S WCI   6
WAHPETON       FAIR      10   9  92 S6        29.84S WCI   1
$$




USA.gov is the U.S. government's official web portal to all federal, state and local government web resources and services.